Hourly Data Report for May 08, 2012

All times are specified in Local Standard Time (LST). Add 1 hour to adjust for Daylight Saving Time where and when it is observed.

SAULT STE MARIE A
ONTARIO

46°29'06.000" N
84°30'35.000" W
192.00 m
6057591
71260
YAM

Related Data

No related data is available for this station

Download Data

Hourly Data (May 2012)
Hourly Data Report for May 8, 2012
Temp Definition
°C
Dew Point Temp Definition
°C
Rel Hum Definition
%
Wind Dir Definition
10's deg

Wind Spd Definition
km/h
Visibility Definition
km
Stn Press Definition
kPa
Hmdx Definition


Wind Chill Definition


Weather Definition


TIME
00:00 Legend Double Dagger 9.2 6.0 80   0 10.0 98.73     LegendNANA
01:00 Legend Double Dagger 6.0 4.8 92 28 4 10.0 98.67     Mainly Clear
02:00 Legend Double Dagger 4.2 3.6 96   0 10.0 98.64     LegendNANA
03:00 Legend Double Dagger 6.4 5.0 91 29 14 10.0 98.62     LegendNANA
04:00 Legend Double Dagger 5.9 4.9 93 30 20 10.0 98.62     Cloudy
05:00 Legend Double Dagger 5.1 5.1 100 29 16 10.0 98.62     LegendNANA
06:00 Legend Double Dagger 5.8 4.8 93 32 10 10.0 98.64     LegendNANA
07:00 Legend Double Dagger 6.2 4.7 90 31 9 10.0 98.67     Mostly Cloudy
08:00 Legend Double Dagger 8.2 6.8 91 30 12 10.0 98.68     LegendNANA
09:00 Legend Double Dagger 7.7 6.2 90 27 14 10.0 98.70     LegendNANA
10:00 Legend Double Dagger 8.7 6.0 83 27 18 10.0 98.69     Mostly Cloudy
11:00 Legend Double Dagger 9.5 6.4 81 29 19 10.0 98.67     LegendNANA
12:00 Legend Double Dagger 12.3 7.4 72 28 18 10.0 98.64     LegendNANA
13:00 Legend Double Dagger 11.0 7.0 76 29 23 10.0 98.59     Mostly Cloudy
14:00 Legend Double Dagger 11.4 7.5 77 29 21 10.0 98.57     LegendNANA
15:00 Legend Double Dagger 11.6 7.4 75 28 19 10.0 98.54     LegendNANA
16:00 Legend Double Dagger 9.0 6.3 83 28 19 10.0 98.56     Cloudy
17:00 Legend Double Dagger 8.7 5.8 82 33 15 10.0 98.60     LegendNANA
18:00 Legend Double Dagger 9.1 7.1 87 32 21 10.0 98.61     Rain Showers
19:00 Legend Double Dagger 6.6 6.0 96 28 21 10.0 98.57     Rain Showers
20:00 Legend Double Dagger 6.2 5.9 98 29 22 10.0 98.61     LegendNANA
21:00 Legend Double Dagger 5.7 5.4 98 34 19 10.0 98.67     LegendNANA
22:00 Legend Double Dagger 5.5 5.4 99 32 15 10.0 98.70     Cloudy
23:00 Legend Double Dagger 4.7 4.7 100 30 21 10.0 98.69     Fog

Notes on Data Quality.

Legend

  • E = Estimated
  • M = Missing
  • NA = Not Available
  • ‡ = Partner data that is not subject to review by the National Climate Archives
Date modified: